Погода в Мастахе

Россия / Республика Саха (Якутия)     63°43′19″N   124°11′32″E
темп.,
°C
ветер,
м/с
пор.,
м/с
влажн.,
%
обл.,
%
осадки,
мм/ч
давл.,
гПа
погр.,
м
15 августа, пн
пн1500:00+14в3995100 0.0 1002244
03:00+14вюв489698 0.3 1002263
06:00+13вюв3697100 0.5 1002221
09:00+16ююв3584100 0.5 1002470
12:00+14юз4588100 0.5 1002416
15:00+13зюз3691100 1.1 1003336
18:00+13ююв128514 0.4 1002166
21:00+11юв338955 0.4 100235
16 августа, вт
вт1600:00+10ю22929 0.0 100227
03:00+9з119013 0.0 100110
06:00+11св0085100 0.0 100119
09:00+13юв1279100 0.0 1001125
12:00+18юв3457100 0.0 999937
15:00+18юв345869 0.0 999960
18:00+18юв3458100 0.1 9981143
21:00+13ююв378584 0.1 998144
17 августа, ср
ср1700:00+12ююв3595100 0.2 99896
03:00+11ю2396100 0.2 99748
06:00+11юз2399100 3.4 997153
09:00+11зюз1398100 10.7 997143
12:00+13юз239197 4.0 997340
15:00+15зюз457995 5.8 9971015
18:00+14зюз4683100 1.3 997576
21:00+11юз3593100 1.4 99890
18 августа, чт
чт1800:00+10зюз359360 0.0 999106
03:00+10юз369476 0.0 999145
06:00+9зюз399429 0.0 999292
09:00+13зюз468248 0.0 999619
12:00+14юз567565 0.1 1000897
15:00+14зюз467372 0.8 10001031
18:00+14зюз367598 0.6 1001553
21:00+10юз359277 0.6 100281
19 августа, пт
пт1900:00+9юз239420 0.0 100352
03:00+8юз34965 0.0 100374
06:00+8юз269711 0.0 1004132
09:00+13зюз357714 0.0 1004540
12:00+16юз455719 0.0 10041366
15:00+17юз345096 0.0 10041783
18:00+15юз256295 0.0 1005255
21:00+13зюз237076 0.0 100652